EW7239 Weather Reports


Display with metric or nautical units.
time (UTC)temp
F
wind
direction
speed
MPH
gust
MPH
rain 1hr
in
rain 24hr
in
rain mn
in
humidity
%
barometer
mb
20181211083132 55 0 0.0 0.0 0.00 0.00 0.00 77 1016.3
20181211082633 55 298 0.0 0.0 0.00 0.00 0.00 77 1016.3
20181211082132 55 0 0.0 0.0 0.00 0.00 0.00 76 1016.5
20181211081630 55 34 0.0 0.0 0.00 0.00 0.00 76 1016.5
20181211081129 56 32 0.0 0.0 0.00 0.00 0.00 76 1016.5
20181211080630 56 32 0.0 0.0 0.00 0.00 0.00 77 1016.5
20181211080129 56 32 0.0 0.0 0.00 0.00 0.00 77 1016.6
20181211075627 56 32 0.0 0.0 0.00 0.00 0.00 77 1016.8
20181211075126 56 32 0.0 0.0 0.00 0.00 0.00 76 1016.9
20181211074624 56 32 0.0 0.0 0.00 0.00 0.00 76 1016.9
20181211074124 56 32 0.0 0.0 0.00 0.00 0.00 76 1016.9
20181211073622 56 32 0.0 0.0 0.00 0.00 0.00 77 1016.8
20181211073123 56 30 0.0 0.0 0.00 0.00 0.00 77 1016.8
20181211072621 56 44 0.0 0.0 0.00 0.00 0.00 76 1016.8
20181211072120 56 51 0.0 0.0 0.00 0.00 0.00 76 1016.9
20181211071618 56 73 0.0 0.0 0.00 0.00 0.00 76 1016.9
20181211071115 56 62 0.0 0.0 0.00 0.00 0.00 76 1016.9
20181211070615 56 38 0.0 0.0 0.00 0.00 0.00 77 1016.9
20181211070118 56 346 0.0 0.0 0.00 0.00 0.00 76 1016.9
20181211065616 55 346 0.0 0.0 0.00 0.00 0.00 75 1016.9
20181211065114 56 346 0.0 0.0 0.00 0.00 0.00 75 1016.8
20181211064614 56 346 0.0 0.0 0.00 0.00 0.00 74 1016.8
20181211064110 56 346 0.0 0.0 0.00 0.00 0.00 74 1016.9
20181211063608 56 346 0.0 0.0 0.00 0.00 0.00 75 1016.6
20181211063105 56 0 0.0 0.0 0.00 0.00 0.00 75 1016.6
20181211062606 56 0 0.0 0.0 0.00 0.00 0.00 74 1016.8
20181211062105 56 0 0.0 0.0 0.00 0.00 0.00 74 1016.8
20181211061606 56 0 0.0 0.0 0.00 0.00 0.00 75 1016.8
20181211061106 56 0 0.0 0.0 0.00 0.00 0.00 75 1016.5
20181211060605 56 0 0.0 0.0 0.00 0.00 0.00 75 1016.6
20181211060105 56 0 0.0 0.0 0.00 0.00 0.00 75 1016.8
20181211055607 56 227 0.0 0.0 0.00 0.00 0.00 75 1017.0
20181211055105 56 227 0.0 0.0 0.00 0.00 0.00 75 1017.0
20181211054603 56 227 0.0 0.0 0.00 0.00 0.00 75 1016.9
20181211054104 56 226 0.0 0.0 0.00 0.00 0.00 75 1016.8
20181211053605 56 227 0.0 0.0 0.00 0.00 0.00 75 1016.8
20181211053104 57 226 0.0 0.0 0.00 0.00 0.00 74 1016.6
20181211052604 57 227 0.0 0.0 0.00 0.00 0.00 74 1016.5
20181211052103 57 226 0.0 0.0 0.00 0.00 0.00 73 1016.8
20181211051603 58 226 0.0 1.0 0.00 0.00 0.00 72 1016.8
20181211051102 58 244 0.0 1.0 0.00 0.00 0.00 71 1016.6
20181211050602 58 211 0.0 0.0 0.00 0.00 0.00 70 1016.5
20181211050101 58 212 0.0 0.0 0.00 0.00 0.00 69 1016.4
20181211045601 58 212 0.0 0.0 0.00 0.00 0.00 69 1016.4
20181211045058 58 212 0.0 0.0 0.00 0.00 0.00 69 1015.7
20181211044557 58 212 0.0 0.0 0.00 0.00 0.00 71 1015.7
20181211044055 58 212 0.0 0.0 0.00 0.00 0.00 71 1015.9
20181211043554 58 212 0.0 0.0 0.00 0.00 0.00 72 1015.8
20181211043053 57 212 0.0 0.0 0.00 0.00 0.00 72 1016.0
20181211042553 57 212 0.0 0.0 0.00 0.00 0.00 72 1016.0
20181211042052 57 212 0.0 0.0 0.00 0.00 0.00 71 1016.2
20181211041552 57 212 0.0 0.0 0.00 0.00 0.00 71 1016.2
20181211041053 57 212 0.0 0.0 0.00 0.00 0.00 70 1016.1
20181211040550 58 212 0.0 0.0 0.00 0.00 0.00 70 1016.2
20181211040047 58 212 0.0 0.0 0.00 0.00 0.00 69 1016.3
20181211035547 58 212 0.0 0.0 0.00 0.00 0.00 69 1016.3
20181211035046 58 212 0.0 0.0 0.00 0.00 0.00 69 1016.3
20181211034544 58 212 0.0 0.0 0.00 0.00 0.00 69 1016.3
20181211034043 58 212 0.0 0.0 0.00 0.00 0.00 68 1016.4
20181211033547 59 212 0.0 0.0 0.00 0.00 0.00 68 1016.3
20181211033040 59 212 0.0 0.0 0.00 0.00 0.00 68 1016.2
20181211032539 59 212 0.0 0.0 0.00 0.00 0.00 68 1016.2
20181211032041 59 212 0.0 0.0 0.00 0.00 0.00 68 1016.3
20181211031541 59 212 0.0 0.0 0.00 0.00 0.00 68 1016.2
20181211031038 59 212 0.0 0.0 0.00 0.00 0.00 66 1016.3
20181211030536 59 212 0.0 0.0 0.00 0.00 0.00 66 1016.3
20181211030037 59 212 0.0 0.0 0.00 0.00 0.00 67 1016.3
20181211025529 59 212 0.0 0.0 0.00 0.00 0.00 66 1016.4
20181211025027 59 212 0.0 0.0 0.00 0.00 0.00 66 1016.3
20181211024528 60 212 0.0 0.0 0.00 0.00 0.00 66 1016.1
20181211024025 59 212 0.0 0.0 0.00 0.00 0.00 66 1016.0
20181211023523 59 212 0.0 0.0 0.00 0.00 0.00 66 1015.8
20181211023023 59 212 0.0 0.0 0.00 0.00 0.00 65 1015.7
20181211022520 60 212 0.0 0.0 0.00 0.00 0.00 65 1015.6
20181211022018 60 212 0.0 0.0 0.00 0.00 0.00 65 1015.8
20181211021518 60 212 0.0 0.0 0.00 0.00 0.00 66 1016.0
20181211021015 60 212 0.0 0.0 0.00 0.00 0.00 66 1016.0
20181211020515 60 212 0.0 0.0 0.00 0.00 0.00 65 1015.9
20181211020011 60 212 0.0 0.0 0.00 0.00 0.00 66 1016.0
20181211015513 60 212 0.0 0.0 0.00 0.00 0.00 65 1015.9
20181211015013 60 212 0.0 0.0 0.00 0.00 0.00 65 1015.7
20181211014513 61 212 0.0 0.0 0.00 0.00 0.00 64 1015.8
20181211014013 61 212 0.0 0.0 0.00 0.00 0.00 64 1015.9
20181211013510 61 212 0.0 0.0 0.00 0.00 0.00 63 1015.9
20181211013011 61 212 0.0 0.0 0.00 0.00 0.00 63 1016.0
20181211012507 62 212 0.0 0.0 0.00 0.00 0.00 62 1016.1
20181211012008 62 212 0.0 0.0 0.00 0.00 0.00 61 1016.0
20181211011507 62 212 0.0 0.0 0.00 0.00 0.00 60 1016.0
20181211011007 62 212 0.0 0.0 0.00 0.00 0.00 59 1015.8
20181211010505 62 212 0.0 0.0 0.00 0.00 0.00 58 1015.7
20181211010004 63 212 0.0 0.0 0.00 0.00 0.00 58 1015.7
20181211005504 63 212 0.0 0.0 0.00 0.00 0.00 57 1015.7
20181211005001 63 212 0.0 0.0 0.00 0.00 0.00 56 1015.8
20181211004500 63 212 0.0 0.0 0.00 0.00 0.00 57 1015.8
20181211004000 63 212 0.0 0.0 0.00 0.00 0.00 58 1015.7
20181211003457 63 212 0.0 0.0 0.00 0.00 0.00 58 1015.8
20181211002957 64 212 0.0 0.0 0.00 0.00 0.00 58 1015.7
20181211002458 64 212 0.0 0.0 0.00 0.00 0.00 58 1015.7
20181211001956 64 212 0.0 0.0 0.00 0.00 0.00 57 1015.8
20181211001455 64 212 0.0 0.0 0.00 0.00 0.00 56 1015.9
20181211000956 65 212 0.0 0.0 0.00 0.00 0.00 54 1016.0
20181211000455 65 236 0.0 0.0 0.00 0.00 0.00 54 1015.9
20181210235953 65 240 0.0 0.0 0.00 0.00 0.00 53 1015.8
20181210235454 65 242 0.0 0.0 0.00 0.00 0.00 53 1015.8
20181210234954 65 242 0.0 0.0 0.00 0.00 0.00 51 1015.8
20181210234452 65 202 0.0 0.0 0.00 0.00 0.00 52 1015.7
20181210233949 66 202 0.0 0.0 0.00 0.00 0.00 52 1015.7
20181210233449 66 202 0.0 0.0 0.00 0.00 0.00 51 1015.6
20181210232941 67 202 0.0 0.0 0.00 0.00 0.00 51 1015.5
20181210232442 67 202 0.0 0.0 0.00 0.00 0.00 50 1015.6
20181210231943 67 233 0.0 0.0 0.00 0.00 0.00 47 1015.8
20181210231442 67 234 0.0 0.0 0.00 0.00 0.00 46 1015.8
20181210230941 67 182 0.0 0.0 0.00 0.00 0.00 46 1015.8
20181210230440 67 175 0.0 0.0 0.00 0.00 0.00 47 1015.8
20181210225938 66 49 0.0 0.0 0.00 0.00 0.00 49 1015.7
20181210225438 66 53 0.0 0.0 0.00 0.00 0.00 51 1015.6
20181210224937 66 41 0.0 0.0 0.00 0.00 0.00 50 1015.6
20181210224438 66 296 0.0 0.0 0.00 0.00 0.00 51 1015.8
20181210223931 66 296 0.0 0.0 0.00 0.00 0.00 50 1016.0
20181210223429 66 277 0.0 0.0 0.00 0.00 0.00 51 1016.0
20181210222927 66 251 0.0 0.0 0.00 0.00 0.00 52 1016.1
20181210222428 66 244 0.0 0.0 0.00 0.00 0.00 49 1016.1
20181210221928 67 240 0.0 0.0 0.00 0.00 0.00 48 1016.1
20181210221425 67 252 0.0 0.0 0.00 0.00 0.00 48 1015.9
20181210220925 67 240 0.0 0.0 0.00 0.00 0.00 48 1015.9
20181210220423 67 243 0.0 0.0 0.00 0.00 0.00 45 1016.1
20181210215922 67 263 0.0 0.0 0.00 0.00 0.00 43 1015.9
20181210215421 67 232 0.0 0.0 0.00 0.00 0.00 43 1015.9
20181210214922 67 95 0.0 0.0 0.00 0.00 0.00 44 1015.7
20181210214421 67 95 0.0 0.0 0.00 0.00 0.00 43 1015.7
20181210213923 67 130 0.0 0.0 0.00 0.00 0.00 44 1015.7
20181210213423 67 130 0.0 0.0 0.00 0.00 0.00 43 1015.7
20181210212923 67 206 0.0 0.0 0.00 0.00 0.00 43 1015.8
20181210212415 67 206 0.0 0.0 0.00 0.00 0.00 43 1016.0
20181210211913 67 206 0.0 0.0 0.00 0.00 0.00 43 1016.1
20181210211414 67 206 0.0 0.0 0.00 0.00 0.00 44 1016.1
20181210210912 67 326 0.0 0.0 0.00 0.00 0.00 46 1016.1
20181210210416 67 325 0.0 0.0 0.00 0.00 0.00 46 1016.2
20181210205910 66 325 0.0 0.0 0.00 0.00 0.00 46 1016.2
20181210205412 66 325 0.0 0.0 0.00 0.00 0.00 47 1016.2
20181210204909 65 313 0.0 0.0 0.00 0.00 0.00 47 1016.2
20181210204409 65 310 0.0 0.0 0.00 0.00 0.00 47 1016.3
20181210203907 65 310 0.0 0.0 0.00 0.00 0.00 48 1016.4
20181210203409 65 36 0.0 0.0 0.00 0.00 0.00 48 1016.5
20181210202907 65 30 0.0 0.0 0.00 0.00 0.00 47 1016.6
20181210202409 65 31 0.0 0.0 0.00 0.00 0.00 47 1016.8
20181210201907 65 55 0.0 0.0 0.00 0.00 0.00 46 1016.8
20181210201411 65 335 0.0 0.0 0.00 0.00 0.00 47 1017.0
20181210200909 65 332 0.0 0.0 0.00 0.00 0.00 48 1017.1
20181210200410 64 121 0.0 0.0 0.00 0.00 0.00 49 1017.1
20181210195636 64 121 0.0 0.0 0.00 0.00 0.00 48 1017.2
20181210195135 64 126 0.0 0.0 0.00 0.00 0.00 48 1017.3
20181210194635 65 77 0.0 0.0 0.00 0.00 0.00 48 1017.5
20181210194136 65 77 0.0 0.0 0.00 0.00 0.00 47 1017.8
20181210193636 64 77 0.0 0.0 0.00 0.00 0.00 47 1017.7
20181210193132 64 77 0.0 0.0 0.00 0.00 0.00 48 1017.9
20181210192632 64 77 0.0 0.0 0.00 0.00 0.00 48 1017.8
20181210192132 64 77 0.0 0.0 0.00 0.00 0.00 49 1018.0
20181210191633 63 77 0.0 0.0 0.00 0.00 0.00 49 1018.0
20181210191134 63 77 0.0 0.0 0.00 0.00 0.00 51 1018.0
20181210190631 63 77 0.0 0.0 0.00 0.00 0.00 52 1018.3
20181210190131 63 77 0.0 0.0 0.00 0.00 0.00 52 1018.4
20181210185631 63 77 0.0 0.0 0.00 0.00 0.00 53 1018.6
20181210185132 62 77 0.0 0.0 0.00 0.00 0.00 54 1018.7
20181210184633 62 77 0.0 0.0 0.00 0.00 0.00 55 1018.7
20181210184132 62 67 0.0 0.0 0.00 0.00 0.00 56 1018.7
20181210183633 61 61 0.0 0.0 0.00 0.00 0.00 56 1018.7
20181210183133 61 51 0.0 0.0 0.00 0.00 0.00 56 1018.7
20181210182629 61 101 0.0 0.0 0.00 0.00 0.00 56 1019.0
20181210182128 61 102 0.0 0.0 0.00 0.00 0.00 57 1019.1
20181210181628 61 102 0.0 0.0 0.00 0.00 0.00 57 1019.1
20181210181129 61 101 0.0 0.0 0.00 0.00 0.00 57 1019.2
20181210180623 60 84 0.0 0.0 0.00 0.00 0.00 57 1019.3
20181210180124 60 84 0.0 0.0 0.00 0.00 0.00 57 1019.2
20181210175624 60 80 0.0 0.0 0.00 0.00 0.00 57 1019.2
20181210175125 60 272 0.0 0.0 0.00 0.00 0.00 55 1019.4
20181210174619 60 272 0.0 0.0 0.00 0.00 0.00 56 1019.6
20181210174120 60 271 0.0 0.0 0.00 0.00 0.00 57 1019.7
20181210173621 59 271 0.0 0.0 0.00 0.00 0.00 58 1019.8
20181210173120 59 269 0.0 0.0 0.00 0.00 0.00 58 1019.9
20181210172617 59 287 0.0 0.0 0.00 0.00 0.00 58 1019.6
20181210172117 58 287 0.0 0.0 0.00 0.00 0.00 59 1019.6
20181210171616 58 287 0.0 0.0 0.00 0.00 0.00 60 1019.5
20181210171116 58 287 0.0 0.0 0.00 0.00 0.00 62 1019.5
20181210170612 57 286 0.0 0.0 0.00 0.00 0.00 64 1019.4
20181210170112 57 0 0.0 0.0 0.00 0.00 0.00 66 1019.5
20181210165612 56 0 0.0 0.0 0.00 0.00 0.00 65 1019.5
20181210165112 56 0 0.0 0.0 0.00 0.00 0.00 66 1019.5
20181210164609 56 18 0.0 0.0 0.00 0.00 0.00 66 1019.6
20181210164107 56 38 0.0 0.0 0.00 0.00 0.00 66 1019.6
20181210163607 56 38 0.0 0.0 0.00 0.00 0.00 66 1019.5
20181210163109 56 38 0.0 0.0 0.00 0.00 0.00 66 1019.4
20181210162608 56 0 0.0 0.0 0.00 0.00 0.00 66 1019.3
20181210162107 56 0 0.0 0.0 0.00 0.00 0.00 66 1019.2
20181210161608 56 0 0.0 0.0 0.00 0.00 0.00 66 1019.1
20181210161108 56 0 0.0 0.0 0.00 0.00 0.00 66 1019.0
20181210160608 55 0 0.0 0.0 0.00 0.00 0.00 66 1019.1
20181210160107 55 0 0.0 0.0 0.00 0.00 0.00 67 1019.4
20181210155608 55 0 0.0 0.0 0.00 0.00 0.00 67 1019.5
20181210155107 55 0 0.0 0.0 0.00 0.00 0.00 67 1019.3
20181210154608 55 0 0.0 0.0 0.00 0.00 0.00 67 1019.4
20181210154109 55 0 0.0 0.0 0.00 0.00 0.00 66 1019.4
20181210153609 55 0 0.0 0.0 0.00 0.00 0.00 66 1019.1
20181210153109 56 0 0.0 0.0 0.00 0.00 0.00 64 1019.0
20181210152605 0 0.0 0.0 0.00 0.00 0.00 1018.8
20181210152013 0 0.0 0.0 0.00 0.00 0.00 1018.8
20181210151505 0 0.0 0.0 0.00 0.00 0.00 1018.8
20181210150909 0 0.0 0.0 0.00 0.00 0.00 1018.8
20181210150407 0 0.0 0.0 0.00 0.00 0.00 1018.9
20181210145903 0 0.0 0.0 0.00 0.00 0.00 1018.9
20181210145403 0 0.0 0.0 0.00 0.00 0.00 1019.0
20181210144903 0 0.0 0.0 0.00 0.00 0.00 1019.2
20181210144404 52 0 0.0 0.0 0.00 0.00 0.00 72 1019.2
20181210143843 52 0 0.0 0.0 0.00 0.00 0.00 72 1019.3
20181210143344 52 0 0.0 0.0 0.00 0.00 0.00 72 1019.2
20181210142842 52 0 0.0 0.0 0.00 0.00 0.00 72 1019.1
20181210142339 53 0 0.0 0.0 0.00 0.00 0.00 72 1019.1
20181210141839 53 0 0.0 0.0 0.00 0.00 0.00 72 1019.1
20181210141338 53 0 0.0 0.0 0.00 0.00 0.00 71 1019.1
20181210140838 54 0 0.0 0.0 0.00 0.00 0.00 70 1019.2
20181210140334 55 0 0.0 0.0 0.00 0.00 0.00 68 1019.1
20181210135834 55 0 0.0 0.0 0.00 0.00 0.00 68 1019.0
20181210135334 55 0 0.0 0.0 0.00 0.00 0.00 69 1019.0
20181210134834 54 0 0.0 0.0 0.00 0.00 0.00 70 1018.7
20181210134330 54 0 0.0 0.0 0.00 0.00 0.00 70 1018.7
20181210133830 54 0 0.0 0.0 0.00 0.00 0.00 70 1018.9
20181210133330 54 0 0.0 0.0 0.00 0.00 0.00 70 1018.8
20181210132830 54 0 0.0 0.0 0.00 0.00 0.00 71 1018.8
20181210132326 54 0 0.0 0.0 0.00 0.00 0.00 71 1018.5
20181210131826 54 0 0.0 0.0 0.00 0.00 0.00 72 1018.7
20181210131326 53 0 0.0 0.0 0.00 0.00 0.00 73 1018.9
20181210130826 53 0 0.0 0.0 0.00 0.00 0.00 73 1018.6
20181210130322 53 0 0.0 0.0 0.00 0.00 0.00 73 1018.8
20181210125822 53 0 0.0 0.0 0.00 0.00 0.00 72 1019.1
20181210125323 54 0 0.0 0.0 0.00 0.00 0.00 72 1019.0
20181210124823 53 0 0.0 0.0 0.00 0.00 0.00 72 1019.0
20181210124319 53 0 0.0 0.0 0.00 0.00 0.00 73 1018.9
20181210123819 53 0 0.0 0.0 0.00 0.00 0.00 72 1019.0
20181210123318 53 0 0.0 0.0 0.00 0.00 0.00 73 1019.0
20181210122819 53 0 0.0 0.0 0.00 0.00 0.00 73 1018.9
20181210122314 53 0 0.0 0.0 0.00 0.00 0.00 73 1018.9
20181210121815 53 0 0.0 0.0 0.00 0.00 0.00 74 1019.0
20181210121314 53 0 0.0 0.0 0.00 0.00 0.00 74 1019.1
20181210120815 53 0 0.0 0.0 0.00 0.00 0.00 74 1019.1
20181210120310 53 0 0.0 0.0 0.00 0.00 0.00 74 1019.1
20181210115810 53 0 0.0 0.0 0.00 0.00 0.00 74 1019.1
20181210115310 53 0 0.0 0.0 0.00 0.00 0.00 74 1019.2
20181210114810 53 0 0.0 0.0 0.00 0.00 0.00 74 1019.2
20181210114306 53 0 0.0 0.0 0.00 0.00 0.00 74 1019.1
20181210113806 53 0 0.0 0.0 0.00 0.00 0.00 73 1019.2
20181210113306 53 0 0.0 0.0 0.00 0.00 0.00 73 1019.2
20181210112806 53 0 0.0 0.0 0.00 0.00 0.00 74 1019.2
20181210112307 53 0 0.0 0.0 0.00 0.00 0.00 74 1019.3
20181210111805 53 0 0.0 0.0 0.00 0.00 0.00 73 1019.3
20181210111308 53 0 0.0 0.0 0.00 0.00 0.00 73 1019.4
20181210110804 53 0 0.0 0.0 0.00 0.00 0.00 72 1019.4
20181210110303 53 0 0.0 0.0 0.00 0.00 0.00 72 1019.3
20181210105804 53 0 0.0 0.0 0.00 0.00 0.00 73 1019.2
20181210105305 53 0 0.0 0.0 0.00 0.00 0.00 74 1019.3
20181210104804 52 0 0.0 0.0 0.00 0.00 0.00 75 1019.4
20181210104535 52 0 0.0 0.0 0.00 0.00 0.00 74 1019.4
20181210103804 52 0 0.0 0.0 0.00 0.00 0.00 73 1019.6
20181210103303 52 0 0.0 0.0 0.00 0.00 0.00 73 1019.5
20181210102804 53 0 0.0 0.0 0.00 0.00 0.00 72 1019.6
20181210102306 53 0 0.0 0.0 0.00 0.00 0.00 71 1019.5
20181210101804 53 0 0.0 0.0 0.00 0.00 0.00 71 1019.5
20181210101304 54 0 0.0 0.0 0.00 0.00 0.00 70 1019.6
20181210100804 54 0 0.0 0.0 0.00 0.00 0.00 70 1019.4
20181210100304 54 24 0.0 0.0 0.00 0.00 0.00 71 1019.6
20181210095804 54 0 0.0 0.0 0.00 0.00 0.00 71 1019.7
20181210095259 54 0 0.0 0.0 0.00 0.00 0.00 71 1019.7
20181210094801 54 329 0.0 0.0 0.00 0.00 0.00 70 1019.9
20181210094300 54 0 0.0 0.0 0.00 0.00 0.00 70 1019.9
20181210093801 54 0 0.0 0.0 0.00 0.00 0.00 70 1019.9
20181210093256 54 0 0.0 0.0 0.00 0.00 0.00 70 1019.9
20181210092756 54 312 0.0 0.0 0.00 0.00 0.00 70 1019.9
20181210092256 54 0 0.0 0.0 0.00 0.00 0.00 70 1019.9
20181210091756 54 0 0.0 0.0 0.00 0.00 0.00 71 1019.9
20181210091253 54 0 0.0 0.0 0.00 0.00 0.00 71 1019.9
20181210090752 54 0 0.0 0.0 0.00 0.00 0.00 72 1020.1
20181210090249 53 0 0.0 0.0 0.00 0.00 0.00 73 1020.1
20181210085749 53 0 0.0 0.0 0.00 0.00 0.00 74 1020.1
20181210085248 53 0 0.0 0.0 0.00 0.00 0.00 74 1020.2
20181210084748 53 0 0.0 0.0 0.00 0.00 0.00 74 1020.3
20181210084249 53 0 0.0 0.0 0.00 0.00 0.00 74 1020.3
20181210083749 52 0 0.0 0.0 0.00 0.00 0.00 74 1020.4